This is the latest recevied weather packets stored in our database for station/object HF3P-11. If no packets are shown the sender has not sent any weather packets the latest 1 day(s).
| Time | Temp. | Humidity | Pressure | Rain* | Wind** | Luminosity | Snow |
|---|---|---|---|---|---|---|---|
| 1777990501 | 19.44° C | 64% | 1000.8 hPa | 0 mm | 4.47 m/s, 17° | - | - |
| 1777990201 | 19.44° C | 65% | 1000.8 hPa | 0 mm | 4.47 m/s, 18° | - | - |
| 1777989901 | 20° C | 64% | 1000.5 hPa | 0 mm | 4.47 m/s, 8° | - | - |
| 1777989608 | 20° C | 65% | 1000.7 hPa | 0 mm | 3.58 m/s, 1° | - | - |
| 1777989301 | 20° C | 65% | 1000.7 hPa | 0 mm | 3.13 m/s, 14° | - | - |
| 1777989009 | 20° C | 64% | 1000.5 hPa | 0 mm | 3.58 m/s, 355° | - | - |
| 1777988700 | 20° C | 63% | 1000.6 hPa | 0 mm | 4.02 m/s, 3° | - | - |
| 1777988409 | 20.56° C | 63% | 1000.5 hPa | 0 mm | 4.02 m/s, 8° | - | - |
| 1777988101 | 20.56° C | 63% | 1000.4 hPa | 0 mm | 4.02 m/s, 354° | - | - |
| 1777987811 | 21.11° C | 63% | 1000.4 hPa | 0 mm | 3.13 m/s, 13° | - | - |
| 1777987509 | 21.11° C | 63% | 1000.3 hPa | 0 mm | 3.13 m/s, 19° | - | - |
| 1777987201 | 21.11° C | 63% | 1000.4 hPa | 0 mm | 3.13 m/s, 26° | - | - |
| 1777986910 | 21.11° C | 63% | 1000.4 hPa | 0 mm | 3.13 m/s, 43° | - | - |
| 1777986601 | 21.11° C | 63% | 1000.6 hPa | 0 mm | 3.13 m/s, 45° | - | - |
| 1777986309 | 21.11° C | 64% | 1000.4 hPa | 0 mm | 3.13 m/s, 41° | - | - |
| 1777986011 | 21.11° C | 64% | 1000.6 hPa | 0 mm | 3.13 m/s, 31° | - | - |
| 1777985711 | 21.11° C | 63% | 1000.5 hPa | 0 mm | 3.13 m/s, 25° | - | - |
| 1777985401 | 21.67° C | 62% | 1000.6 hPa | 0 mm | 3.13 m/s, 27° | - | - |
| 1777985110 | 21.67° C | 62% | 1000.5 hPa | 0 mm | 3.13 m/s, 34° | - | - |
| 1777984801 | 21.67° C | 61% | 1000.5 hPa | 0 mm | 2.68 m/s, 31° | - | - |
| 1777984509 | 21.67° C | 62% | 1000.6 hPa | 0 mm | 2.68 m/s, 33° | - | - |
| 1777984211 | 21.11° C | 62% | 1000.6 hPa | 0 mm | 2.68 m/s, 36° | - | - |
| 1777983901 | 21.11° C | 62% | 1000.8 hPa | 0 mm | 2.68 m/s, 37° | - | - |
| 1777983601 | 21.11° C | 63% | 1000.8 hPa | 0 mm | 2.68 m/s, 33° | - | - |
| 1777983309 | 21.11° C | 63% | 1000.8 hPa | 0 mm | 2.24 m/s, 28° | - | - |
* Rain latest hour (hover to see other rain measurements)
** Current wind speed in m/s (hover to see current wind gust speed)